SCP
0 0 0 0 0 0 -0 0 -0 0 0 0 0 0 0 0 0 0 0 0 -0 -0 -0 -0 -0 -0 -0 -0 -0 -0 -0 -0 0 0 -0 -0 -0 0 0 0 0 0 0 0 0 0 0 0 0
0 0 0 0 0 0 0 0 0 0 0 0 0 0 0 0 0 0 0 0 0 -0 -0 -0 -0 -0 -0 -0 -0 -0 -0 -0 0 0 0 -0 0 0 0 0 0 0 0 0 0 0 0 0 0
0 0 0 0 0 0 0 0 0 0 0 0 0 0 0 0 0 0 0 0 0 0 0 0 -0 -0 -0 -0 -0 -0 -0 -0 0 0 0 0 0 0 0 0 0 0 0 0 0 0 0 0 0
0 0 0 0 0 0 0 0 0 0 0 0 0 0 0 0 0 0 0 0 0 0 0 0 -0 -0 -0 -0 -0 -0 -0 -0 0 0 0 0 0 0 0 0 0 0 0 0 0 0 0 0 0
0 0 0 0 0 0 0 0 0 0 0 0 0 0 0 0 0 0 0 0 0 0 0 0 -0 -0 -0 -0 -0 -0 -0 -0 0 0 0 0 0 0 0 0 0 0 0 0 0 0 0 0 0
0 0 0 0 0 0 0 0 0 0 0 0 0 0 0 0 0 0 0 0 0 0 0 0 0 0 -0 -0 -0 -0 -0 0 0 0 0 0 0 0 0 0 0 0 0 0 0 0 0 0 0
0 0 0 0 0 0 0 0 0 0 0 0 0 0 0 0 0 0 0 0 0 0 0 0 0 0 -0 -0 -0 -0 -0 0 0 0 0 0 0 0 0 0 0 0 0 0 0 0 0 0 0
0 0 0 0 0 0 0 0 0 0 0 0 0 0 -0 0 0 0 0 0 0 0 0 0 0 -0 0 -0 -0 -0 -0 0 0 0 0 0 0 0 0 0 0 0 0 0 0 0 0 0 0
0 0 0 -0 0 0 0 0 0 0 0 0 0 0 0 0 0 0 0 0 0 0 0 0 0 -0 0 -0 -0 -0 -0 -0 0 0 0 0 0 0 0 0 0 0 0 0 0 0 0 0 0
0 0 0 0 0 0 0 0 0 0 0 0 0 0 0 0 0 0 0 0 0 0 0 0 -0 0 0 0 -0 -0 -0 -0 0 0 0 0 0 0 0 0 0 0 0 0 0 0 0 0 0
0 0 0 0 0 0 0 0 0 0 0 0 0 0 0 0 0 0 0 0 0 0 0 0 0 0 0 0 0 0 -0 0 0 0 0 0 0 0 0 0 0 0 0 0 0 0 0 0 0
0 0 0 0 0 0 0 0 0 0 0 0 0 0 0 0 0 0 0 0 0 0 0 0 0 0 0 0 0 0 0 0 0 0 0 0 0 0 0 0 0 0 0 0 0 0 0 0 0
0 0 0 0 0 0 0 0 0 0 0 0 0 0 0 0 0 0 0 0 0 0 0 0 0 0 0 0 0 0 0 0 0 0 0 0 0 0 0 0 0 0 0 0 0 0 0 0 0
0 0 0 0 0 0 0 0 0 0 0 0 0 0 0 0 0 0 0 0 -0 0 0 0 0 0 0 0 0 0 0 0 0 0 0 0 0 0 0 0 0 0 0 0 0 0 0 0 0
0 0 0 0 0 0 0 0 0 0 0 0 0 0 0 0 0 0 0 0 0 0 0 0 0 0 0 0 0 0 0 0 0 0 0 0 0 0 0 0 0 0 0 0 0 0 0 0 0
0 0 0 0 0 0 0 -0 0 -0 0 0 0 0 0 0 0 0 0 0 0 0 0 0 0 0 0 0 0 0 0 0 0 0 0 0 0 0 0 0 0 0 0 0 0 0 0 0 0
0 0 0 0 0 0 0 0 0 0 0 0 0 0 0 0 0 0 0 0 0 0 0 0 0 0 0 0 0 0 0 0 0 0 0 0 0 0 0 0 0 0 0 0 0 -0 0 0 0
0 0 0 0 0 0 0 0 0 0 0 0 0 0 0 0 0 0 0 0 0 0 0 0 0 0 0 0 0 0 0 0 0 0 0 0 0 0 0 0 0 0 0 0 0 0 0 -0 0
0 0 0 0 0 0 0 0 0 0 0 0 0 0 0 0 0 0 0 0 0 0 0 0 0 0 0 0 0 0 0 0 0 0 0 0 0 0 0 0 0 0 0 0 0 0 0 0 -0
0 0 0 0 0 0 0 0 -0 0 0 0 0 0 0 0 0 0 0 0 0 0 0 0 0 0 0 0 0 0 0 0 0 0 0 0 0 0 0 0 0 0 0 0 0 0 -0 -0 -0
0 0 0 0 0 0 0 0 -0 0 0 0 0 0 0 0 0 0 0 0 0 0 0 0 0 0 0 0 0 0 0 0 0 0 0 0 0 0 0 0 0 0 -0 0 -0 0 0 0 -0
0 0 0 0 0 0 0 -0 0 0 -0 -0 0 0 0 0 0 0 0 0 0 0 0 0 0 0 0 0 0 0 0 0 0 0 0 0 0 0 0 0 0 0 0 -0 -0 -0 -0 -0 0
0 0 0 0 0 0 0 0 -0 -0 0 0 0 0 0 0 0 0 0 0 0 0 0 0 0 0 0 0 0 0 0 0 0 0 0 0 0 0 0 0 0 0 0 -0 -0 -0 -0 -0 -0
0 0 0 0 0 0 0 0 -0 0 0 0 0 0 0 0 0 0 0 0 0 0 0 0 0 0 0 0 0 0 0 0 0 0 0 0 0 0 0 0 0 0 0 0 0 -0 -0 -0 -0
0 0 0 0 0 0 0 0 -0 0 0 0 0 0 0 0 0 0 0 0 0 0 0 0 0 0 0 0 0 0 0 0 0 0 0 0 0 0 0 0 0 0 0 0 0 0 0 0 0
0 0 0 0 0 0 0 0 0 0 -0 -0 0 0 0 0 0 0 0 0 0 0 0 0 0 0 0 0 0 0 0 0 0 0 0 0 0 0 0 0 0 0 0 0 0 0 0 0 0
0 0 0 0 0 0 0 0 0 0 0 0 0 0 0 0 0 0 0 0 0 0 0 0 0 0 0 0 0 0 0 0 0 0 0 0 0 0 0 0 0 0 0 0 0 0 0 0 0
0 0 0 0 0 0 0 0 0 -0 -0 -0 0 0 0 0 0 0 0 0 0 0 0 0 0 0 0 0 0 0 0 0 0 0 0 0 0 0 0 0 0 0 0 0 0 0 0 0 0
0 0 0 0 0 0 0 0 0 -0 0 0 0 0 0 0 0 0 0 0 0 0 0 0 0 0 0 0 0 0 0 0 0 0 0 0 0 0 0 0 0 0 0 0 0 0 0 0 0
0 0 0 0 0 0 0 0 0 0 0 0 0 0 0 0 0 0 0 0 0 0 0 0 0 0 0 0 0 0 0 0 0 0 0 0 0 0 0 0 0 0 0 0 0 0 0 0 0
Wind_Speed_500mb
21 22 16 15 13 13 25 16 25 12 13 3 10 8 9 12 12 6 22 20 31 32 34 31 20 15 9 6 4 6 5 8 9 8 8 10 11 13 15 16 16 15 17 18 21 23 24 26 26
16 18 15 20 14 23 21 22 18 16 3 7 6 11 12 3 10 16 21 30 33 32 32 30 22 14 8 4 5 5 4 6 6 7 8 10 13 14 16 16 16 16 18 19 20 19 17 21 19
13 15 20 10 24 27 22 7 14 4 5 6 6 5 9 8 8 23 16 34 33 31 34 28 20 13 8 5 7 6 4 3 4 6 8 11 13 13 14 15 15 16 15 15 16 19 19 21 18
7 12 18 19 33 26 29 4 5 11 9 12 8 10 5 5 12 13 29 35 34 34 30 27 19 14 10 7 10 7 3 3 4 7 10 12 12 12 12 13 16 15 14 18 21 22 22 22 24
8 17 21 27 39 37 14 18 17 14 11 18 15 6 3 7 15 19 33 38 33 32 29 29 22 12 5 12 12 5 2 2 4 7 11 11 12 13 14 17 17 17 17 20 19 22 26 25 22
19 15 24 29 38 31 20 28 23 21 20 13 14 16 7 11 19 26 37 34 31 32 30 30 24 11 2 13 11 6 3 2 4 7 9 10 11 13 16 18 17 17 20 22 23 26 27 25 25
23 19 31 39 37 27 20 22 22 27 24 27 5 11 10 17 24 31 41 37 38 33 30 25 23 17 13 17 12 7 4 3 3 7 9 10 10 15 19 19 18 20 22 25 30 32 30 30 30
16 20 39 37 34 38 27 10 19 32 29 12 14 10 12 27 32 35 44 37 35 35 33 27 22 15 15 21 14 8 7 3 3 7 9 10 13 16 19 17 19 21 25 27 31 31 31 28 33
11 16 29 42 37 32 14 14 20 9 24 17 16 5 14 27 35 39 46 42 38 37 32 29 25 20 17 21 16 11 9 3 2 6 8 10 14 15 17 16 20 23 26 30 30 30 30 37 42
22 24 42 33 36 29 30 19 28 13 26 25 24 13 21 23 39 45 53 52 48 42 36 30 27 24 23 21 17 14 10 5 1 4 6 9 10 12 14 19 20 24 24 31 29 31 33 26 21
19 39 35 36 26 34 36 31 27 24 30 33 36 33 28 30 40 43 48 46 52 42 37 33 30 26 26 23 20 17 12 8 3 1 3 7 9 12 15 14 19 21 24 23 24 30 31 35 32
29 44 41 46 28 25 31 36 32 37 39 8 19 19 37 39 43 46 48 50 54 40 40 35 31 29 28 27 24 19 15 11 6 2 1 5 8 9 13 12 16 20 22 24 30 27 28 33 32
36 41 45 35 44 36 36 34 39 45 37 23 14 16 32 35 38 40 42 48 43 42 41 42 36 32 31 31 29 23 19 14 9 4 1 5 7 8 11 14 15 18 19 23 24 26 31 36 35
31 29 44 49 39 42 34 47 51 42 46 40 30 24 28 35 39 39 45 54 47 46 46 45 42 36 34 34 32 26 22 18 13 8 4 5 7 8 11 14 15 15 17 23 23 27 31 37 34
44 42 39 42 42 32 27 46 53 55 53 39 50 44 36 35 37 48 48 52 56 49 48 49 45 41 37 37 34 30 26 20 16 11 8 6 9 9 12 13 13 14 16 21 19 28 33 38 38
23 36 41 35 43 32 27 45 34 54 62 65 59 52 46 49 44 44 45 47 50 48 52 52 48 45 42 41 38 34 29 25 20 15 11 9 10 11 12 15 14 15 17 16 18 28 36 40 42
39 35 41 36 19 28 38 35 33 51 44 53 65 68 64 55 49 52 49 48 48 52 52 56 56 52 47 43 41 40 34 30 25 20 15 13 12 12 13 15 17 17 15 14 20 28 34 43 43
37 42 43 45 27 40 42 47 36 23 23 49 54 55 60 67 66 57 55 52 50 51 54 56 58 58 53 49 47 46 40 36 30 25 19 16 15 14 15 17 19 18 15 16 20 28 35 45 41
50 42 50 40 40 25 40 42 44 43 51 45 42 41 58 61 54 56 60 60 55 55 57 59 63 64 63 61 57 54 50 42 36 30 24 20 18 16 17 18 22 19 17 16 18 24 21 29 32
57 57 59 37 27 15 31 43 40 41 45 60 58 63 63 54 54 54 51 63 68 65 65 66 67 68 69 67 61 56 52 45 40 34 28 24 21 19 19 21 23 21 20 17 17 13 7 6 13
61 64 54 50 21 20 31 45 49 52 56 66 68 67 66 66 64 56 58 61 70 73 73 73 71 72 73 70 66 61 55 49 48 41 36 30 26 23 20 22 25 23 22 19 16 10 6 1 7
58 53 50 47 36 37 26 31 41 31 46 50 61 67 69 66 63 65 62 63 69 76 78 71 72 73 75 76 76 70 63 59 52 45 38 34 30 27 23 25 26 25 22 21 17 11 10 8 2
66 40 45 44 41 29 44 25 42 34 49 49 43 58 65 67 66 69 68 69 71 72 75 76 78 78 80 82 79 73 64 57 51 48 43 39 35 31 28 27 27 28 24 21 18 14 10 7 8
41 42 42 31 26 25 56 40 40 39 45 34 37 53 60 62 71 72 68 66 75 75 80 78 75 83 84 86 83 78 68 65 62 55 50 45 39 36 33 29 29 31 27 23 21 18 17 13 19
51 36 16 20 16 28 39 34 57 29 31 33 43 51 57 56 55 59 61 67 69 76 84 85 80 80 85 88 89 82 75 72 61 56 54 50 45 42 37 32 31 31 31 27 24 22 20 20 20
61 51 20 29 24 46 25 28 36 26 44 59 45 42 39 43 42 48 57 67 79 83 87 90 86 83 84 89 90 85 79 72 66 59 54 48 45 41 39 35 32 33 34 30 26 25 23 23 18
43 55 59 27 1 13 24 52 47 26 20 23 32 43 51 44 38 41 46 58 65 81 91 92 91 89 85 85 90 89 84 78 72 63 53 50 48 44 42 38 34 35 36 34 30 27 25 23 20
46 50 44 31 30 26 29 43 25 31 44 43 35 29 37 39 42 37 39 44 55 70 80 86 89 91 90 87 90 91 90 79 71 67 60 56 51 46 45 41 37 37 37 36 35 30 27 23 26
48 46 32 39 35 24 17 22 7 30 34 21 15 13 30 43 37 44 45 45 45 55 68 77 79 82 91 90 91 93 90 83 77 69 63 56 53 49 48 44 40 38 37 37 39 35 32 25 28
57 57 53 31 47 41 20 20 7 11 15 15 19 9 13 20 31 39 43 45 45 53 62 71 75 81 86 89 93 94 91 84 81 74 67 59 54 51 49 47 43 41 39 38 40 39 35 29 31
Wind_Direction_500mb
290 304 291 266 243 232 256 233 244 236 222 242 314 260 285 7 346 7 141 131 154 165 172 171 181 174 191 230 255 222 273 311 316 331 342 343 347 349 347 350 345 335 319 319 320 317 314 310 308
288 301 273 263 247 245 251 208 207 230 358 335 257 254 258 93 63 120 145 142 147 174 166 179 177 172 181 194 211 209 268 307 319 346 348 353 356 356 352 350 343 333 330 340 342 345 335 328 327
294 283 263 231 241 246 262 114 240 348 225 220 233 250 331 69 97 141 150 145 150 166 163 183 180 187 195 201 201 214 257 296 341 343 2 3 358 356 356 352 346 342 349 355 348 349 349 345 337
313 236 252 250 247 240 273 207 186 257 197 186 237 242 119 127 141 163 156 150 158 155 180 180 183 200 214 207 202 215 249 317 343 349 17 3 354 3 3 356 355 358 358 1 360 348 346 339 338
263 257 254 238 251 255 239 277 288 266 238 196 201 225 145 149 141 146 163 148 162 160 181 180 193 201 234 188 199 205 231 301 341 9 21 355 358 6 6 4 357 9 16 14 356 353 349 347 339
245 245 250 249 248 242 251 260 247 250 239 180 217 237 144 183 154 158 167 153 159 167 175 189 194 198 214 201 193 200 220 276 352 16 15 359 10 16 19 9 16 25 18 12 4 2 1 353 346
243 241 252 264 273 271 238 229 238 244 229 215 205 223 119 165 167 179 171 162 165 176 177 184 197 210 232 214 200 204 221 257 349 15 9 4 24 34 30 25 31 29 22 19 19 16 7 356 357
256 257 258 254 261 269 258 210 253 250 247 184 194 228 194 184 189 176 175 164 175 173 178 169 187 197 222 207 202 204 222 239 5 15 7 13 26 36 34 33 39 30 24 27 24 19 9 7 15
244 245 244 247 255 268 276 252 228 261 261 217 207 214 151 181 188 183 174 170 184 185 178 178 178 176 183 201 198 210 225 229 7 15 17 25 29 27 40 47 44 34 36 36 28 22 22 29 10
220 237 243 257 269 280 275 267 269 238 228 218 208 186 162 192 188 189 185 182 189 187 183 183 179 186 184 198 194 216 218 219 11 4 23 45 32 29 60 57 48 43 41 35 31 33 28 28 27
227 243 257 256 271 274 277 267 253 253 254 231 219 203 188 189 189 194 195 194 192 191 190 189 191 192 189 195 199 213 217 212 211 296 29 54 45 35 58 51 46 45 40 34 36 42 42 39 44
250 251 255 264 270 263 257 270 259 245 247 310 273 236 191 195 197 196 197 196 200 197 199 195 193 201 195 200 202 211 216 210 210 241 47 83 62 58 76 77 56 49 41 43 48 47 40 47 46
237 257 262 255 261 251 267 257 255 262 252 245 248 209 198 202 203 202 202 202 199 200 207 205 201 207 203 202 206 207 215 210 209 212 168 106 91 82 91 87 72 62 52 51 52 51 51 50 41
273 259 262 254 249 253 249 256 252 250 250 246 227 224 214 213 209 203 205 207 199 201 202 208 207 209 212 206 210 209 211 211 207 205 188 137 114 100 101 94 83 75 60 64 54 59 56 53 42
260 270 261 247 248 242 259 257 248 248 251 246 235 231 226 222 214 213 215 214 203 203 201 208 209 211 213 209 210 211 211 209 207 203 196 170 132 121 112 110 99 97 76 65 66 65 61 59 58
260 248 256 247 234 227 211 257 256 240 236 243 239 233 228 228 222 218 215 218 215 204 205 209 211 214 214 210 210 211 212 209 209 204 199 181 153 135 127 124 123 114 89 71 79 72 67 69 70
235 253 238 251 227 214 212 261 250 244 240 242 239 237 233 231 225 223 217 214 215 207 204 209 212 214 214 211 210 211 211 209 208 207 201 188 167 149 142 138 140 128 107 94 87 84 77 77 79
233 237 245 255 223 219 228 240 250 229 254 245 244 240 235 233 228 224 218 215 212 207 206 208 212 213 213 213 211 212 209 209 209 207 201 192 179 160 151 144 148 138 128 114 101 99 84 77 72
250 248 238 241 229 228 242 254 253 248 245 238 242 243 242 232 229 225 222 213 210 206 204 204 210 211 210 212 211 212 211 209 207 207 200 195 187 171 160 156 157 150 150 138 126 107 87 82 93
239 242 248 258 247 222 266 264 255 254 249 250 247 243 239 238 233 223 214 213 210 209 207 206 210 210 211 215 215 216 212 212 211 208 201 199 191 180 167 163 164 158 158 157 157 138 114 114 100
234 234 237 245 254 240 272 269 259 253 250 247 245 243 242 239 232 223 213 209 210 207 207 206 206 208 209 212 212 211 210 210 209 205 202 198 194 186 175 172 172 167 161 168 170 172 145 47 161
242 234 249 250 249 253 225 276 266 262 242 229 235 233 235 234 232 225 215 210 211 213 207 205 206 205 209 209 214 215 215 211 210 209 204 199 196 190 182 177 177 175 170 169 171 181 157 124 113
250 247 245 243 245 264 255 263 265 240 244 240 236 229 233 230 227 224 219 213 216 214 210 209 208 206 210 209 216 215 213 214 212 208 205 201 198 193 188 183 179 180 177 173 170 172 165 139 143
266 243 242 233 233 238 240 235 262 244 246 249 247 239 228 229 225 222 219 212 212 212 213 213 210 206 213 211 216 216 212 213 209 206 204 201 199 195 191 186 183 181 181 176 170 160 150 125 123
224 221 196 205 201 232 226 224 236 246 233 249 243 240 237 228 222 217 215 204 203 201 205 210 209 203 211 211 214 213 211 216 211 207 205 202 199 196 193 187 187 181 182 181 173 164 155 140 136
209 210 205 195 197 234 194 228 227 239 244 249 251 245 246 234 223 213 209 205 205 203 207 209 208 208 210 210 211 211 211 213 210 207 206 204 203 198 193 188 186 184 182 183 179 170 166 153 139
226 215 218 245 78 262 214 237 268 257 245 241 245 240 235 225 210 203 204 202 202 200 205 209 209 208 210 210 207 208 209 210 207 203 204 203 202 197 192 190 187 185 183 185 186 178 173 171 158
231 219 219 235 241 231 229 237 240 199 226 228 237 225 232 225 215 204 203 203 202 204 202 204 207 206 209 207 206 205 207 208 205 202 200 200 200 195 192 190 189 186 185 184 188 185 174 171 165
224 221 217 224 231 231 242 240 269 237 255 249 246 277 248 223 211 203 204 206 201 196 195 195 199 199 206 204 203 203 205 204 203 201 200 200 198 195 192 191 190 186 187 184 185 186 180 176 170
218 215 214 221 216 236 248 237 47 339 321 304 277 274 273 252 200 189 199 197 192 188 188 192 194 198 205 202 201 201 203 201 201 198 199 199 197 196 193 192 190 188 187 187 185 185 185 182 176
Wind_Speed_850mb
21 22 16 15 13 13 25 16 25 12 13 3 10 8 9 12 12 6 22 20 31 32 34 31 20 15 9 6 4 6 5 8 9 8 8 10 11 13 15 16 16 15 17 18 21 23 24 26 26
16 18 15 20 14 23 21 22 18 16 3 7 6 11 12 3 10 16 21 30 33 32 32 30 22 14 8 4 5 5 4 6 6 7 8 10 13 14 16 16 16 16 18 19 20 19 17 21 19
13 15 20 10 24 27 22 7 14 4 5 6 6 5 9 8 8 23 16 34 33 31 34 28 20 13 8 5 7 6 4 3 4 6 8 11 13 13 14 15 15 16 15 15 16 19 19 21 18
7 12 18 19 33 26 29 4 5 11 9 12 8 10 5 5 12 13 29 35 34 34 30 27 19 14 10 7 10 7 3 3 4 7 10 12 12 12 12 13 16 15 14 18 21 22 22 22 24
8 17 21 27 39 37 14 18 17 14 11 18 15 6 3 7 15 19 33 38 33 32 29 29 22 12 5 12 12 5 2 2 4 7 11 11 12 13 14 17 17 17 17 20 19 22 26 25 22
19 15 24 29 38 31 20 28 23 21 20 13 14 16 7 11 19 26 37 34 31 32 30 30 24 11 2 13 11 6 3 2 4 7 9 10 11 13 16 18 17 17 20 22 23 26 27 25 25
23 19 31 39 37 27 20 22 22 27 24 27 5 11 10 17 24 31 41 37 38 33 30 25 23 17 13 17 12 7 4 3 3 7 9 10 10 15 19 19 18 20 22 25 30 32 30 30 30
16 20 39 37 34 38 27 10 19 32 29 12 14 10 12 27 32 35 44 37 35 35 33 27 22 15 15 21 14 8 7 3 3 7 9 10 13 16 19 17 19 21 25 27 31 31 31 28 33
11 16 29 42 37 32 14 14 20 9 24 17 16 5 14 27 35 39 46 42 38 37 32 29 25 20 17 21 16 11 9 3 2 6 8 10 14 15 17 16 20 23 26 30 30 30 30 37 42
22 24 42 33 36 29 30 19 28 13 26 25 24 13 21 23 39 45 53 52 48 42 36 30 27 24 23 21 17 14 10 5 1 4 6 9 10 12 14 19 20 24 24 31 29 31 33 26 21
19 39 35 36 26 34 36 31 27 24 30 33 36 33 28 30 40 43 48 46 52 42 37 33 30 26 26 23 20 17 12 8 3 1 3 7 9 12 15 14 19 21 24 23 24 30 31 35 32
29 44 41 46 28 25 31 36 32 37 39 8 19 19 37 39 43 46 48 50 54 40 40 35 31 29 28 27 24 19 15 11 6 2 1 5 8 9 13 12 16 20 22 24 30 27 28 33 32
36 41 45 35 44 36 36 34 39 45 37 23 14 16 32 35 38 40 42 48 43 42 41 42 36 32 31 31 29 23 19 14 9 4 1 5 7 8 11 14 15 18 19 23 24 26 31 36 35
31 29 44 49 39 42 34 47 51 42 46 40 30 24 28 35 39 39 45 54 47 46 46 45 42 36 34 34 32 26 22 18 13 8 4 5 7 8 11 14 15 15 17 23 23 27 31 37 34
44 42 39 42 42 32 27 46 53 55 53 39 50 44 36 35 37 48 48 52 56 49 48 49 45 41 37 37 34 30 26 20 16 11 8 6 9 9 12 13 13 14 16 21 19 28 33 38 38
23 36 41 35 43 32 27 45 34 54 62 65 59 52 46 49 44 44 45 47 50 48 52 52 48 45 42 41 38 34 29 25 20 15 11 9 10 11 12 15 14 15 17 16 18 28 36 40 42
39 35 41 36 19 28 38 35 33 51 44 53 65 68 64 55 49 52 49 48 48 52 52 56 56 52 47 43 41 40 34 30 25 20 15 13 12 12 13 15 17 17 15 14 20 28 34 43 43
37 42 43 45 27 40 42 47 36 23 23 49 54 55 60 67 66 57 55 52 50 51 54 56 58 58 53 49 47 46 40 36 30 25 19 16 15 14 15 17 19 18 15 16 20 28 35 45 41
50 42 50 40 40 25 40 42 44 43 51 45 42 41 58 61 54 56 60 60 55 55 57 59 63 64 63 61 57 54 50 42 36 30 24 20 18 16 17 18 22 19 17 16 18 24 21 29 32
57 57 59 37 27 15 31 43 40 41 45 60 58 63 63 54 54 54 51 63 68 65 65 66 67 68 69 67 61 56 52 45 40 34 28 24 21 19 19 21 23 21 20 17 17 13 7 6 13
61 64 54 50 21 20 31 45 49 52 56 66 68 67 66 66 64 56 58 61 70 73 73 73 71 72 73 70 66 61 55 49 48 41 36 30 26 23 20 22 25 23 22 19 16 10 6 1 7
58 53 50 47 36 37 26 31 41 31 46 50 61 67 69 66 63 65 62 63 69 76 78 71 72 73 75 76 76 70 63 59 52 45 38 34 30 27 23 25 26 25 22 21 17 11 10 8 2
66 40 45 44 41 29 44 25 42 34 49 49 43 58 65 67 66 69 68 69 71 72 75 76 78 78 80 82 79 73 64 57 51 48 43 39 35 31 28 27 27 28 24 21 18 14 10 7 8
41 42 42 31 26 25 56 40 40 39 45 34 37 53 60 62 71 72 68 66 75 75 80 78 75 83 84 86 83 78 68 65 62 55 50 45 39 36 33 29 29 31 27 23 21 18 17 13 19
51 36 16 20 16 28 39 34 57 29 31 33 43 51 57 56 55 59 61 67 69 76 84 85 80 80 85 88 89 82 75 72 61 56 54 50 45 42 37 32 31 31 31 27 24 22 20 20 20
61 51 20 29 24 46 25 28 36 26 44 59 45 42 39 43 42 48 57 67 79 83 87 90 86 83 84 89 90 85 79 72 66 59 54 48 45 41 39 35 32 33 34 30 26 25 23 23 18
43 55 59 27 1 13 24 52 47 26 20 23 32 43 51 44 38 41 46 58 65 81 91 92 91 89 85 85 90 89 84 78 72 63 53 50 48 44 42 38 34 35 36 34 30 27 25 23 20
46 50 44 31 30 26 29 43 25 31 44 43 35 29 37 39 42 37 39 44 55 70 80 86 89 91 90 87 90 91 90 79 71 67 60 56 51 46 45 41 37 37 37 36 35 30 27 23 26
48 46 32 39 35 24 17 22 7 30 34 21 15 13 30 43 37 44 45 45 45 55 68 77 79 82 91 90 91 93 90 83 77 69 63 56 53 49 48 44 40 38 37 37 39 35 32 25 28
57 57 53 31 47 41 20 20 7 11 15 15 19 9 13 20 31 39 43 45 45 53 62 71 75 81 86 89 93 94 91 84 81 74 67 59 54 51 49 47 43 41 39 38 40 39 35 29 31
Wind_Direction_850mb
290 304 291 266 243 232 256 233 244 236 222 242 314 260 285 7 346 7 141 131 154 165 172 171 181 174 191 230 255 222 273 311 316 331 342 343 347 349 347 350 345 335 319 319 320 317 314 310 308
288 301 273 263 247 245 251 208 207 230 358 335 257 254 258 93 63 120 145 142 147 174 166 179 177 172 181 194 211 209 268 307 319 346 348 353 356 356 352 350 343 333 330 340 342 345 335 328 327
294 283 263 231 241 246 262 114 240 348 225 220 233 250 331 69 97 141 150 145 150 166 163 183 180 187 195 201 201 214 257 296 341 343 2 3 358 356 356 352 346 342 349 355 348 349 349 345 337
313 236 252 250 247 240 273 207 186 257 197 186 237 242 119 127 141 163 156 150 158 155 180 180 183 200 214 207 202 215 249 317 343 349 17 3 354 3 3 356 355 358 358 1 360 348 346 339 338
263 257 254 238 251 255 239 277 288 266 238 196 201 225 145 149 141 146 163 148 162 160 181 180 193 201 234 188 199 205 231 301 341 9 21 355 358 6 6 4 357 9 16 14 356 353 349 347 339
245 245 250 249 248 242 251 260 247 250 239 180 217 237 144 183 154 158 167 153 159 167 175 189 194 198 214 201 193 200 220 276 352 16 15 359 10 16 19 9 16 25 18 12 4 2 1 353 346
243 241 252 264 273 271 238 229 238 244 229 215 205 223 119 165 167 179 171 162 165 176 177 184 197 210 232 214 200 204 221 257 349 15 9 4 24 34 30 25 31 29 22 19 19 16 7 356 357
256 257 258 254 261 269 258 210 253 250 247 184 194 228 194 184 189 176 175 164 175 173 178 169 187 197 222 207 202 204 222 239 5 15 7 13 26 36 34 33 39 30 24 27 24 19 9 7 15
244 245 244 247 255 268 276 252 228 261 261 217 207 214 151 181 188 183 174 170 184 185 178 178 178 176 183 201 198 210 225 229 7 15 17 25 29 27 40 47 44 34 36 36 28 22 22 29 10
220 237 243 257 269 280 275 267 269 238 228 218 208 186 162 192 188 189 185 182 189 187 183 183 179 186 184 198 194 216 218 219 11 4 23 45 32 29 60 57 48 43 41 35 31 33 28 28 27
227 243 257 256 271 274 277 267 253 253 254 231 219 203 188 189 189 194 195 194 192 191 190 189 191 192 189 195 199 213 217 212 211 296 29 54 45 35 58 51 46 45 40 34 36 42 42 39 44
250 251 255 264 270 263 257 270 259 245 247 310 273 236 191 195 197 196 197 196 200 197 199 195 193 201 195 200 202 211 216 210 210 241 47 83 62 58 76 77 56 49 41 43 48 47 40 47 46
237 257 262 255 261 251 267 257 255 262 252 245 248 209 198 202 203 202 202 202 199 200 207 205 201 207 203 202 206 207 215 210 209 212 168 106 91 82 91 87 72 62 52 51 52 51 51 50 41
273 259 262 254 249 253 249 256 252 250 250 246 227 224 214 213 209 203 205 207 199 201 202 208 207 209 212 206 210 209 211 211 207 205 188 137 114 100 101 94 83 75 60 64 54 59 56 53 42
260 270 261 247 248 242 259 257 248 248 251 246 235 231 226 222 214 213 215 214 203 203 201 208 209 211 213 209 210 211 211 209 207 203 196 170 132 121 112 110 99 97 76 65 66 65 61 59 58
260 248 256 247 234 227 211 257 256 240 236 243 239 233 228 228 222 218 215 218 215 204 205 209 211 214 214 210 210 211 212 209 209 204 199 181 153 135 127 124 123 114 89 71 79 72 67 69 70
235 253 238 251 227 214 212 261 250 244 240 242 239 237 233 231 225 223 217 214 215 207 204 209 212 214 214 211 210 211 211 209 208 207 201 188 167 149 142 138 140 128 107 94 87 84 77 77 79
233 237 245 255 223 219 228 240 250 229 254 245 244 240 235 233 228 224 218 215 212 207 206 208 212 213 213 213 211 212 209 209 209 207 201 192 179 160 151 144 148 138 128 114 101 99 84 77 72
250 248 238 241 229 228 242 254 253 248 245 238 242 243 242 232 229 225 222 213 210 206 204 204 210 211 210 212 211 212 211 209 207 207 200 195 187 171 160 156 157 150 150 138 126 107 87 82 93
239 242 248 258 247 222 266 264 255 254 249 250 247 243 239 238 233 223 214 213 210 209 207 206 210 210 211 215 215 216 212 212 211 208 201 199 191 180 167 163 164 158 158 157 157 138 114 114 100
234 234 237 245 254 240 272 269 259 253 250 247 245 243 242 239 232 223 213 209 210 207 207 206 206 208 209 212 212 211 210 210 209 205 202 198 194 186 175 172 172 167 161 168 170 172 145 47 161
242 234 249 250 249 253 225 276 266 262 242 229 235 233 235 234 232 225 215 210 211 213 207 205 206 205 209 209 214 215 215 211 210 209 204 199 196 190 182 177 177 175 170 169 171 181 157 124 113
250 247 245 243 245 264 255 263 265 240 244 240 236 229 233 230 227 224 219 213 216 214 210 209 208 206 210 209 216 215 213 214 212 208 205 201 198 193 188 183 179 180 177 173 170 172 165 139 143
266 243 242 233 233 238 240 235 262 244 246 249 247 239 228 229 225 222 219 212 212 212 213 213 210 206 213 211 216 216 212 213 209 206 204 201 199 195 191 186 183 181 181 176 170 160 150 125 123
224 221 196 205 201 232 226 224 236 246 233 249 243 240 237 228 222 217 215 204 203 201 205 210 209 203 211 211 214 213 211 216 211 207 205 202 199 196 193 187 187 181 182 181 173 164 155 140 136
209 210 205 195 197 234 194 228 227 239 244 249 251 245 246 234 223 213 209 205 205 203 207 209 208 208 210 210 211 211 211 213 210 207 206 204 203 198 193 188 186 184 182 183 179 170 166 153 139
226 215 218 245 78 262 214 237 268 257 245 241 245 240 235 225 210 203 204 202 202 200 205 209 209 208 210 210 207 208 209 210 207 203 204 203 202 197 192 190 187 185 183 185 186 178 173 171 158
231 219 219 235 241 231 229 237 240 199 226 228 237 225 232 225 215 204 203 203 202 204 202 204 207 206 209 207 206 205 207 208 205 202 200 200 200 195 192 190 189 186 185 184 188 185 174 171 165
224 221 217 224 231 231 242 240 269 237 255 249 246 277 248 223 211 203 204 206 201 196 195 195 199 199 206 204 203 203 205 204 203 201 200 200 198 195 192 191 190 186 187 184 185 186 180 176 170
218 215 214 221 216 236 248 237 47 339 321 304 277 274 273 252 200 189 199 197 192 188 188 192 194 198 205 202 201 201 203 201 201 198 199 199 197 196 193 192 190 188 187 187 185 185 185 182 176